Location: Alpha Ridge Park
(39.3209°N, 76.9128°W)
Time: 14:57:29
(UTC-04:00)

Vanguard 2 Rocket - Pass Details

Date: 29 May 2019
Orbit: 554 x 3326 km, 32.9° (Epoch: 16 June)

Event Time Altitude Azimuth Distance (km) Brightness Sun altitude
Rises 05:55:30 0° 246° (WSW) 7,251 10.8 1.1°
Reaches altitude 10° 06:00:24 10° 244° (WSW) 6,281 10.5 1.9°
Maximum altitude 06:20:12 65° 169° (SSE) 3,096 9.6 5.4°
Drops below altitude 10° 06:34:00 10° 92° (E) 4,575 12.0 7.8°
Sets 06:36:56 0° 89° (E) 5,266 12.4 8.4°
